DW6860 Weather Reports


time (UTC)temp
C
wind
direction
speed
KPH
gust
KPH
rain 1hr
cm
rain 24hr
cm
rain mn
cm
humidity
%
barometer
mb
20260506203544 11 23 0.0 0.0 0.00 0.00 0.00 69 1011.4
20260506203510 11 0 0.0 0.0 0.00 0.00 0.00 69 1011.4
20260506203048 11 23 0.0 1.6 0.00 0.00 0.00 69 1011.4
20260506203009 11 23 0.0 1.6 0.00 0.00 0.00 69 1011.4
20260506202822 11 23 0.0 1.6 0.00 0.00 0.00 69 1011.3
20260506202705 11 23 0.0 1.6 0.00 0.00 0.00 69 1011.4
20260506202509 11 23 0.0 1.6 0.00 0.00 0.00 69 1011.4
20260506202009 11 23 0.0 1.6 0.00 0.00 0.00 69 1011.3
20260506201601 11 23 0.0 3.2 0.00 0.00 0.00 69 1011.2
20260506201509 11 23 0.0 3.2 0.00 0.00 0.00 68 1011.2
20260506201221 11 23 0.0 3.2 0.00 0.00 0.00 68 1011.2
20260506201059 11 23 0.0 3.2 0.00 0.00 0.00 68 1011.2
20260506201011 11 23 0.0 3.2 0.00 0.00 0.00 68 1011.2
20260506200508 11 23 0.0 3.2 0.00 0.00 0.00 68 1011.3
20260506200120 11 23 0.0 3.2 0.00 0.00 0.00 68 1011.3
20260506200038 11 23 0.0 3.2 0.00 0.00 0.00 68 1011.2
20260506200031 11 23 0.0 3.2 0.00 0.00 0.00 68 1011.3
20260506195509 11 23 0.0 3.2 0.00 0.00 0.00 68 1011.3
20260506195011 11 23 0.0 1.6 0.00 0.00 0.00 68 1011.1
20260506195009 11 23 0.0 1.6 0.00 0.00 0.00 68 1011.1
20260506194514 11 23 0.0 1.6 0.00 0.00 0.00 68 1011.1
20260506194508 11 23 0.0 1.6 0.00 0.00 0.00 68 1011.2
20260506194032 11 23 0.0 1.6 0.00 0.00 0.00 68 1011.1
20260506194009 11 23 0.0 1.6 0.00 0.00 0.00 68 1011.1
20260506193943 11 23 1.6 6.4 0.00 0.00 0.00 67 1010.8
20260506193633 11 23 0.0 1.6 0.00 0.00 0.00 68 1011.0
20260506193510 11 23 0.0 1.6 0.00 0.00 0.00 68 1011.1
20260506193009 11 23 0.0 1.6 0.00 0.00 0.00 68 1011.0
20260506193004 11 23 0.0 1.6 0.00 0.00 0.00 68 1011.0
20260506192926 11 23 0.0 3.2 0.00 0.00 0.00 67 1010.9
20260506192851 11 23 3.2 6.4 0.00 0.00 0.00 67 1010.8
20260506192624 11 23 0.0 3.2 0.00 0.00 0.00 68 1010.8
20260506192511 11 23 0.0 3.2 0.00 0.00 0.00 68 1010.9
20260506192009 11 23 0.0 3.2 0.00 0.00 0.00 67 1010.9
20260506191531 11 23 1.6 6.4 0.00 0.00 0.00 67 1010.8
20260506191009 11 23 1.6 6.4 0.00 0.00 0.00 67 1010.7
20260506190530 11 24 3.2 6.4 0.00 0.00 0.00 67 1010.7
20260506190419 11 23 3.2 6.4 0.00 0.00 0.00 67 1010.7
20260506190009 11 45 3.2 6.4 0.00 0.00 0.00 67 1010.7
20260506185923 11 23 3.2 6.4 0.00 0.00 0.00 67 1010.7
20260506185509 11 50 1.6 6.4 0.00 0.00 0.00 67 1010.6
20260506185415 11 34 1.6 6.4 0.00 0.00 0.00 67 1010.5
20260506185008 11 41 1.6 4.8 0.00 0.00 0.00 67 1010.6
20260506184950 11 25 1.6 6.4 0.00 0.00 0.00 67 1010.5
20260506184921 11 49 1.6 4.8 0.00 0.00 0.00 67 1010.6
20260506184508 11 37 1.6 6.4 0.00 0.00 0.00 67 1010.5
20260506184136 11 55 1.6 6.4 0.00 0.00 0.00 67 1010.3
20260506184009 12 37 1.6 6.4 0.00 0.00 0.00 67 1010.5
20260506183951 11 45 1.6 6.4 0.00 0.00 0.00 67 1010.4
20260506183511 12 33 1.6 6.4 0.00 0.00 0.00 67 1010.4
20260506183030 12 32 1.6 6.4 0.00 0.00 0.00 67 1010.3
20260506182915 12 22 1.6 6.4 0.00 0.00 0.00 67 1010.3
20260506182508 12 32 1.6 6.4 0.00 0.00 0.00 67 1010.3
20260506182411 12 59 1.6 6.4 0.00 0.00 0.00 67 1010.2
20260506182009 12 23 1.6 6.4 0.00 0.00 0.00 67 1010.2
20260506181909 12 38 1.6 6.4 0.00 0.00 0.00 67 1010.1
20260506181718 12 26 1.6 4.8 0.00 0.00 0.00 67 1010.1
20260506181628 12 24 3.2 12.9 0.00 0.00 0.00 66 1009.7
20260506181557 12 26 1.6 8.0 0.00 0.00 0.00 67 1010.0
20260506181511 12 28 1.6 4.8 0.00 0.00 0.00 67 1010.1
20260506181420 12 26 1.6 4.8 0.00 0.00 0.00 67 1010.1
20260506181009 12 36 1.6 8.0 0.00 0.00 0.00 67 1010.1
20260506180738 12 46 3.2 6.4 0.00 0.00 0.00 67 1009.8
20260506180509 12 42 1.6 8.0 0.00 0.00 0.00 67 1010.0
20260506180449 12 55 1.6 8.0 0.00 0.00 0.00 66 1009.9
20260506180010 12 39 1.6 4.8 0.00 0.00 0.00 67 1009.9
20260506175509 12 40 3.2 12.9 0.00 0.00 0.00 66 1009.8
20260506175009 12 40 3.2 12.9 0.00 0.00 0.00 66 1009.7
20260506174850 12 36 3.2 12.9 0.00 0.00 0.00 66 1009.7
20260506174530 12 34 3.2 9.7 0.00 0.00 0.00 67 1009.8
20260506174348 12 69 3.2 9.7 0.00 0.00 0.00 67 1009.7
20260506174009 12 36 3.2 9.7 0.00 0.00 0.00 67 1009.7
20260506173847 12 18 3.2 9.7 0.00 0.00 0.00 67 1009.7
20260506173554 12 43 6.4 14.5 0.00 0.00 0.00 67 1009.5
20260506173508 12 30 4.8 11.3 0.00 0.00 0.00 67 1009.6
20260506173420 12 44 4.8 11.3 0.00 0.00 0.00 67 1009.6
20260506173009 12 27 4.8 11.3 0.00 0.00 0.00 67 1009.6
20260506172930 12 25 6.4 14.5 0.00 0.00 0.00 67 1009.5
20260506172854 12 26 4.8 11.3 0.00 0.00 0.00 67 1009.6
20260506172508 12 26 6.4 14.5 0.00 0.00 0.00 67 1009.5
20260506172008 12 27 6.4 14.5 0.00 0.00 0.00 67 1009.6
20260506171529 12 24 6.4 14.5 0.00 0.00 0.00 67 1009.6
20260506171339 12 35 6.4 14.5 0.00 0.00 0.00 67 1009.5
20260506171009 12 28 6.4 12.9 0.00 0.00 0.00 67 1009.5
20260506170842 12 30 6.4 14.5 0.00 0.00 0.00 67 1009.4
20260506170529 12 30 6.4 19.3 0.00 0.00 0.00 67 1009.4
20260506170336 12 22 8.0 19.3 0.00 0.00 0.00 67 1009.4
20260506170009 12 22 8.0 19.3 0.00 0.00 0.00 67 1009.4
20260506165843 12 15 8.0 19.3 0.00 0.00 0.00 68 1009.3
20260506165508 12 16 4.8 14.5 0.00 0.00 0.00 68 1009.3
20260506165338 12 355 4.8 12.9 0.00 0.00 0.00 69 1009.3
20260506165009 12 18 4.8 12.9 0.00 0.00 0.00 69 1009.3
20260506164834 12 16 4.8 11.3 0.00 0.00 0.00 70 1009.2
20260506164508 12 19 3.2 11.3 0.00 0.00 0.00 70 1009.3
20260506164336 12 355 4.8 11.3 0.00 0.00 0.00 70 1009.3
20260506164009 12 16 4.8 12.9 0.00 0.00 0.00 70 1009.3
20260506163837 12 13 4.8 12.9 0.00 0.00 0.00 70 1009.3
20260506163508 12 16 6.4 12.9 0.00 0.00 0.00 70 1009.4
20260506163330 12 36 6.4 14.5 0.00 0.00 0.00 69 1009.4
20260506163010 12 24 6.4 19.3 0.00 0.00 0.00 69 1009.4
20260506162833 12 346 8.0 19.3 0.00 0.00 0.00 69 1009.5
20260506162530 12 29 6.4 19.3 0.00 0.00 0.00 69 1009.5
20260506162327 12 76 8.0 19.3 0.00 0.00 0.00 69 1009.5
20260506162009 12 29 6.4 17.7 0.00 0.00 0.00 69 1009.4
20260506161837 12 32 6.4 17.7 0.00 0.00 0.00 69 1009.5
20260506161529 12 25 8.0 17.7 0.00 0.00 0.00 69 1009.5
20260506161342 12 21 8.0 17.7 0.00 0.00 0.00 69 1009.3
20260506161008 12 25 8.0 17.7 0.00 0.00 0.00 69 1009.5
20260506160833 12 337 9.7 17.7 0.00 0.00 0.00 69 1009.4
20260506160510 12 29 9.7 20.9 0.00 0.00 0.00 68 1009.5
20260506160329 12 27 9.7 20.9 0.00 0.00 0.00 68 1009.4
20260506160009 12 28 11.3 30.6 0.00 0.00 0.00 67 1009.5
20260506155926 12 22 6.4 30.6 0.00 0.00 0.00 66 1009.4
20260506155843 12 28 9.7 30.6 0.00 0.00 0.00 67 1009.5
20260506155530 12 29 8.0 30.6 0.00 0.00 0.00 66 1009.5
20260506155009 12 30 6.4 17.7 0.00 0.00 0.00 66 1009.4
20260506154829 12 32 6.4 16.1 0.00 0.00 0.00 66 1009.4
20260506154508 12 26 8.0 17.7 0.00 0.00 0.00 65 1009.4
20260506154326 12 20 8.0 17.7 0.00 0.00 0.00 65 1009.3
20260506154030 12 27 9.7 17.7 0.00 0.00 0.00 64 1009.4
20260506153827 12 40 9.7 17.7 0.00 0.00 0.00 64 1009.4
20260506153508 12 22 9.7 17.7 0.00 0.00 0.00 64 1009.4
20260506153330 12 18 9.7 17.7 0.00 0.00 0.00 64 1009.4
20260506153030 12 18 9.7 17.7 0.00 0.00 0.00 63 1009.3
20260506152830 12 355 8.0 17.7 0.00 0.00 0.00 62 1009.4
20260506152509 12 26 8.0 17.7 0.00 0.00 0.00 62 1009.4
20260506152451 12 24 8.0 17.7 0.00 0.00 0.00 61 1009.2
20260506152352 12 11 8.0 17.7 0.00 0.00 0.00 62 1009.3
20260506152008 12 27 8.0 17.7 0.00 0.00 0.00 61 1009.2
20260506151825 12 65 8.0 17.7 0.00 0.00 0.00 61 1009.2
20260506151509 12 23 8.0 17.7 0.00 0.00 0.00 61 1009.3
20260506151008 12 27 8.0 17.7 0.00 0.00 0.00 61 1009.2
20260506150818 12 12 6.4 16.1 0.00 0.00 0.00 61 1009.2
20260506150508 12 28 6.4 14.5 0.00 0.00 0.00 61 1009.1
20260506150319 13 28 6.4 14.5 0.00 0.00 0.00 61 1009.2
20260506150009 13 26 6.4 17.7 0.00 0.00 0.00 61 1009.2
20260506145836 13 24 6.4 17.7 0.00 0.00 0.00 61 1009.1
20260506145510 13 27 6.4 17.7 0.00 0.00 0.00 61 1009.1
20260506145333 13 36 6.4 17.7 0.00 0.00 0.00 60 1009.2
20260506145011 13 33 6.4 17.7 0.00 0.00 0.00 60 1009.1
20260506144826 13 21 4.8 17.7 0.00 0.00 0.00 60 1009.1
20260506144510 13 32 6.4 17.7 0.00 0.00 0.00 60 1009.0
20260506144324 13 101 4.8 12.9 0.00 0.00 0.00 60 1009.1
20260506144008 13 25 4.8 12.9 0.00 0.00 0.00 60 1009.0
20260506143827 13 351 4.8 12.9 0.00 0.00 0.00 60 1009.1
20260506143509 13 25 4.8 12.9 0.00 0.00 0.00 59 1009.1
20260506143313 13 22 6.4 19.3 0.00 0.00 0.00 59 1009.1
20260506143009 13 22 6.4 19.3 0.00 0.00 0.00 59 1009.1
20260506142827 13 25 8.0 19.3 0.00 0.00 0.00 59 1008.9
20260506142529 13 23 6.4 19.3 0.00 0.00 0.00 59 1009.1
20260506142316 13 15 6.4 19.3 0.00 0.00 0.00 58 1009.0
20260506142009 13 23 6.4 19.3 0.00 0.00 0.00 58 1009.0
20260506141817 13 15 6.4 19.3 0.00 0.00 0.00 57 1008.9
20260506141508 13 19 6.4 14.5 0.00 0.00 0.00 57 1009.0
20260506141432 13 351 8.0 17.7 0.00 0.00 0.00 56 1009.0
20260506141345 13 32 6.4 14.5 0.00 0.00 0.00 57 1009.0
20260506141009 13 19 6.4 17.7 0.00 0.00 0.00 56 1008.9
20260506140511 13 23 8.0 17.7 0.00 0.00 0.00 55 1009.0
20260506140320 13 21 8.0 17.7 0.00 0.00 0.00 55 1009.0
20260506140009 13 27 8.0 20.9 0.00 0.00 0.00 55 1008.9
20260506135819 13 15 8.0 20.9 0.00 0.00 0.00 55 1008.9
20260506135508 14 26 8.0 20.9 0.00 0.00 0.00 55 1008.9
20260506135312 14 42 9.7 20.9 0.00 0.00 0.00 55 1008.8
20260506135009 14 25 9.7 17.7 0.00 0.00 0.00 55 1008.9
20260506134812 14 63 8.0 17.7 0.00 0.00 0.00 55 1008.9
20260506134509 14 27 8.0 17.7 0.00 0.00 0.00 55 1008.9
20260506134309 14 27 8.0 17.7 0.00 0.00 0.00 55 1008.8
20260506134010 14 28 8.0 17.7 0.00 0.00 0.00 55 1008.7
20260506133945 14 20 9.7 17.7 0.00 0.00 0.00 55 1008.6
20260506133833 14 25 8.0 17.7 0.00 0.00 0.00 56 1008.7
20260506133508 14 29 8.0 17.7 0.00 0.00 0.00 55 1008.7
20260506133008 14 28 9.7 22.5 0.00 0.00 0.00 55 1008.6
20260506132811 14 55 9.7 22.5 0.00 0.00 0.00 54 1008.6
20260506132508 14 31 9.7 22.5 0.00 0.00 0.00 53 1008.6
20260506132306 14 27 8.0 22.5 0.00 0.00 0.00 53 1008.6
20260506132008 14 33 8.0 20.9 0.00 0.00 0.00 53 1008.7
20260506131801 14 32 8.0 20.9 0.00 0.00 0.00 54 1008.6
20260506131508 14 35 8.0 20.9 0.00 0.00 0.00 54 1008.6
20260506131359 14 23 9.7 22.5 0.00 0.00 0.00 54 1008.5
20260506131321 14 64 9.7 20.9 0.00 0.00 0.00 54 1008.6
20260506131008 14 32 9.7 22.5 0.00 0.00 0.00 54 1008.6
20260506130617 14 355 8.0 20.9 0.00 0.00 0.00 57 1008.5
20260506130508 14 26 9.7 22.5 0.00 0.00 0.00 54 1008.6
20260506130408 14 28 9.7 24.1 0.00 0.00 0.00 54 1008.5
20260506130029 14 30 9.7 24.1 0.00 0.00 0.00 54 1008.6
20260506125836 14 5 9.7 24.1 0.00 0.00 0.00 55 1008.5
20260506125508 14 35 9.7 24.1 0.00 0.00 0.00 55 1008.5
20260506125325 14 0 8.0 19.3 0.00 0.00 0.00 56 1008.5
20260506125009 14 31 8.0 17.7 0.00 0.00 0.00 57 1008.6
20260506124640 14 30 9.7 19.3 0.00 0.00 0.00 57 1008.5
20260506124508 14 29 9.7 20.9 0.00 0.00 0.00 58 1008.5
20260506124420 14 24 11.3 20.9 0.00 0.00 0.00 58 1008.5
20260506124030 14 30 11.3 20.9 0.00 0.00 0.00 57 1008.5
20260506123930 14 0 9.7 22.5 0.00 0.00 0.00 57 1008.5
20260506123831 14 20 9.7 19.3 0.00 0.00 0.00 57 1008.5
20260506123529 14 28 9.7 19.3 0.00 0.00 0.00 57 1008.6
20260506123008 14 31 9.7 22.5 0.00 0.00 0.00 57 1008.5
20260506122508 14 34 9.7 22.5 0.00 0.00 0.00 56 1008.4
20260506122257 14 26 8.0 22.5 0.00 0.00 0.00 56 1008.3
20260506122030 14 30 9.7 22.5 0.00 0.00 0.00 58 1008.4
20260506121948 14 17 9.7 22.5 0.00 0.00 0.00 58 1008.3
20260506121820 14 46 9.7 17.7 0.00 0.00 0.00 58 1008.2
20260506121508 14 26 9.7 20.9 0.00 0.00 0.00 58 1008.3
20260506121009 14 29 9.7 22.5 0.00 0.00 0.00 58 1008.2
20260506120756 14 38 11.3 22.5 0.00 0.00 0.00 57 1008.2
20260506120508 14 33 11.3 24.1 0.00 0.00 0.00 56 1008.3
20260506120257 15 15 11.3 24.1 0.00 0.00 0.00 57 1008.4
20260506120010 15 26 11.3 24.1 0.00 0.00 0.00 57 1008.2
20260506115752 15 40 9.7 24.1 0.00 0.00 0.00 56 1008.3
20260506115508 15 20 9.7 22.5 0.00 0.00 0.00 56 1008.2
20260506115306 15 14 9.7 20.9 0.00 0.00 0.00 55 1008.2
20260506115008 15 21 9.7 20.9 0.00 0.00 0.00 56 1008.2
20260506114758 15 24 11.3 20.9 0.00 0.00 0.00 55 1008.1
20260506114529 15 28 11.3 25.7 0.00 0.00 0.00 54 1008.2
20260506114251 15 13 11.3 25.7 0.00 0.00 0.00 53 1008.2
20260506114008 15 33 9.7 25.7 0.00 0.00 0.00 52 1008.2
20260506113743 15 49 9.7 25.7 0.00 0.00 0.00 52 1008.1
20260506113510 15 26 9.7 24.1 0.00 0.00 0.00 52 1008.2
20260506113253 15 25 9.7 24.1 0.00 0.00 0.00 52 1008.1
20260506113008 15 23 9.7 24.1 0.00 0.00 0.00 52 1008.1
20260506112751 15 23 9.7 24.1 0.00 0.00 0.00 53 1008.1
20260506112528 15 23 9.7 22.5 0.00 0.00 0.00 53 1008.1
20260506112249 15 23 9.7 22.5 0.00 0.00 0.00 53 1008.1
20260506112008 15 22 9.7 22.5 0.00 0.00 0.00 52 1008.1
20260506111754 15 355 9.7 25.7 0.00 0.00 0.00 51 1008.0
20260506111508 15 29 9.7 25.7 0.00 0.00 0.00 51 1008.1
20260506111249 15 19 9.7 25.7 0.00 0.00 0.00 52 1008.0
20260506111009 15 36 11.3 25.7 0.00 0.00 0.00 51 1008.1
20260506110742 15 261 9.7 25.7 0.00 0.00 0.00 51 1008.0
20260506110544 15 49 11.3 25.7 0.00 0.00 0.00 51 1008.1
20260506110508 15 27 11.3 25.7 0.00 0.00 0.00 52 1008.1
20260506110209 15 13 8.0 19.3 0.00 0.00 0.00 58 1008.0
20260506110120 15 30 8.0 19.3 0.00 0.00 0.00 58 1008.0
20260506110008 15 23 11.3 25.7 0.00 0.00 0.00 53 1008.1
20260506105850 15 49 11.3 25.7 0.00 0.00 0.00 53 1008.0
20260506105529 15 25 11.3 25.7 0.00 0.00 0.00 54 1008.1
20260506105432 15 41 8.0 17.7 0.00 0.00 0.00 58 1008.0
20260506105325 15 78 9.7 24.1 0.00 0.00 0.00 56 1007.9
20260506105030 15 23 11.3 22.5 0.00 0.00 0.00 58 1008.0
20260506104507 15 28 8.0 19.3 0.00 0.00 0.00 57 1008.0
20260506104010 15 31 8.0 17.7 0.00 0.00 0.00 57 1008.1
20260506103653 14 5 11.3 22.5 0.00 0.00 0.00 59 1007.9
20260506103559 14 18 11.3 24.1 0.00 0.00 0.00 59 1007.9
20260506103508 15 31 8.0 17.7 0.00 0.00 0.00 57 1008.0
20260506103354 15 33 8.0 17.7 0.00 0.00 0.00 57 1007.9
20260506103008 15 32 8.0 17.7 0.00 0.00 0.00 58 1008.0
20260506102830 15 30 9.7 24.1 0.00 0.00 0.00 58 1007.8
20260506102509 15 27 9.7 24.1 0.00 0.00 0.00 59 1007.9
20260506102009 14 26 11.3 24.1 0.00 0.00 0.00 59 1008.0
20260506101508 14 27 9.7 22.5 0.00 0.00 0.00 60 1007.9
20260506101243 14 13 8.0 22.5 0.00 0.00 0.00 62 1007.9
20260506101029 14 29 9.7 22.5 0.00 0.00 0.00 62 1007.8
20260506100734 14 0 8.0 17.7 0.00 0.00 0.00 63 1007.7
20260506100508 13 26 9.7 22.5 0.00 0.00 0.00 64 1007.8
20260506100238 13 31 9.7 22.5 0.00 0.00 0.00 65 1007.8
20260506100010 13 26 9.7 22.5 0.00 0.00 0.00 66 1007.8
20260506095740 13 34 9.7 22.5 0.00 0.00 0.00 66 1007.8
20260506095508 13 27 8.0 17.7 0.00 0.00 0.00 66 1007.8
20260506095240 13 42 6.4 16.1 0.00 0.00 0.00 67 1007.7
20260506095029 13 16 6.4 16.1 0.00 0.00 0.00 67 1007.8
20260506094736 13 61 6.4 16.1 0.00 0.00 0.00 68 1007.8
20260506094542 13 20 6.4 19.3 0.00 0.00 0.00 68 1007.7
20260506094531 13 5 8.0 16.1 0.00 0.00 0.00 68 1007.7
20260506094511 13 21 6.4 16.1 0.00 0.00 0.00 68 1007.8
20260506094333 13 348 8.0 16.1 0.00 0.00 0.00 68 1007.7
20260506094029 13 32 6.4 16.1 0.00 0.00 0.00 68 1007.8
20260506093508 13 32 6.4 16.1 0.00 0.00 0.00 69 1007.7
20260506093235 13 68 8.0 19.3 0.00 0.00 0.00 68 1007.7
20260506093009 13 25 6.4 19.3 0.00 0.00 0.00 68 1007.7
20260506092508 13 21 8.0 19.3 0.00 0.00 0.00 68 1007.8
20260506092237 13 5 8.0 19.3 0.00 0.00 0.00 69 1007.6
20260506092009 13 17 9.7 22.5 0.00 0.00 0.00 69 1007.7
20260506091733 13 18 11.3 22.5 0.00 0.00 0.00 68 1007.6
20260506091508 13 10 9.7 22.5 0.00 0.00 0.00 69 1007.7
20260506091233 13 22 9.7 22.5 0.00 0.00 0.00 70 1007.6
20260506091008 13 14 8.0 20.9 0.00 0.00 0.00 70 1007.6
20260506090930 13 20 9.7 22.5 0.00 0.00 0.00 70 1007.5
20260506090814 13 20 8.0 20.9 0.00 0.00 0.00 70 1007.6
20260506090507 13 25 8.0 19.3 0.00 0.00 0.00 70 1007.6
20260506090008 13 23 9.7 22.5 0.00 0.00 0.00 70 1007.6
20260506085738 13 33 8.0 22.5 0.00 0.00 0.00 70 1007.5
20260506085508 13 18 8.0 22.5 0.00 0.00 0.00 71 1007.5
20260506085233 13 21 6.4 20.9 0.00 0.00 0.00 72 1007.4
20260506085008 13 13 8.0 20.9 0.00 0.00 0.00 72 1007.5
20260506084732 13 23 8.0 20.9 0.00 0.00 0.00 73 1007.5
20260506084529 13 15 8.0 20.9 0.00 0.00 0.00 73 1007.4
20260506084226 13 15 11.3 20.9 0.00 0.00 0.00 73 1007.4
20260506084008 13 18 9.7 20.9 0.00 0.00 0.00 74 1007.5
20260506083723 13 31 9.7 20.9 0.00 0.00 0.00 74 1007.4
20260506083508 13 23 8.0 20.9 0.00 0.00 0.00 74 1007.5
20260506083225 12 5 6.4 20.9 0.00 0.00 0.00 75 1007.4
20260506083008 12 29 6.4 16.1 0.00 0.00 0.00 76 1007.4
20260506082723 12 45 6.4 16.1 0.00 0.00 0.00 76 1007.3
20260506082529 12 28 6.4 14.5 0.00 0.00 0.00 77 1007.4
20260506082221 12 9 4.8 17.7 0.00 0.00 0.00 79 1007.3
20260506082009 12 21 4.8 17.7 0.00 0.00 0.00 80 1007.3
20260506081822 11 327 4.8 9.7 0.00 0.00 0.00 82 1007.4
20260506081740 12 25 4.8 17.7 0.00 0.00 0.00 81 1007.3
20260506081508 12 15 4.8 17.7 0.00 0.00 0.00 82 1007.4
20260506081008 11 15 4.8 9.7 0.00 0.00 0.00 82 1007.4
20260506080730 11 9 4.8 8.0 0.00 0.00 0.00 83 1007.4
20260506080508 11 16 4.8 14.5 0.00 0.00 0.00 83 1007.4
20260506080221 11 0 4.8 14.5 0.00 0.00 0.00 83 1007.3
20260506073508 11 19 6.4 17.7 0.00 0.00 0.00 86 1007.3
20260506073208 10 37 6.4 17.7 0.00 0.00 0.00 86 1007.3
20260506073008 10 21 6.4 17.7 0.00 0.00 0.00 86 1007.3
20260506072713 10 344 6.4 17.7 0.00 0.00 0.00 87 1007.3
20260506072509 10 21 6.4 17.7 0.00 0.00 0.00 87 1007.3
20260506072228 10 30 6.4 17.7 0.00 0.00 0.00 87 1007.3
20260506072009 10 16 6.4 16.1 0.00 0.00 0.00 87 1007.3
20260506071716 10 26 4.8 14.5 0.00 0.00 0.00 88 1007.3
20260506071508 10 18 6.4 12.9 0.00 0.00 0.00 88 1007.3
20260506071212 10 67 4.8 14.5 0.00 0.00 0.00 88 1007.3
20260506071029 10 23 4.8 14.5 0.00 0.00 0.00 89 1007.4
20260506070912 10 0 4.8 12.9 0.00 0.00 0.00 90 1007.2
20260506070831 10 19 3.2 9.7 0.00 0.00 0.00 90 1007.2
20260506070740 10 39 4.8 14.5 0.00 0.00 0.00 89 1007.3
20260506070507 10 15 4.8 14.5 0.00 0.00 0.00 89 1007.3
20260506062507 10 5 3.2 8.0 0.00 0.00 0.00 91 1007.2
20260506062008 9 358 3.2 12.9 0.00 0.00 0.00 91 1007.1
20260506061707 9 348 3.2 12.9 0.00 0.00 0.00 91 1007.0
20260506061508 9 5 3.2 12.9 0.00 0.00 0.00 91 1007.0
20260506061204 9 0 3.2 8.0 0.00 0.00 0.00 91 1007.0
20260506061008 9 12 3.2 8.0 0.00 0.00 0.00 91 1007.0
20260506060711 9 26 3.2 9.7 0.00 0.00 0.00 91 1006.9
20260506060507 9 14 3.2 9.7 0.00 0.00 0.00 91 1006.9
20260506060201 9 19 3.2 9.7 0.00 0.00 0.00 91 1007.0
20260506051144 9 14 4.8 9.7 0.00 0.00 0.00 92 1007.0
20260506051029 8 18 4.8 11.3 0.00 0.00 0.00 92 1007.1
20260506050643 8 17 3.2 11.3 0.00 0.00 0.00 92 1007.0
20260506050508 8 21 4.8 11.3 0.00 0.00 0.00 92 1007.0
20260506050140 9 5 3.2 11.3 0.00 0.00 0.00 92 1007.0
20260506045135 8 28 4.8 12.9 0.00 0.00 0.00 92 1007.1
20260506045008 8 15 4.8 12.9 0.00 0.00 0.00 92 1007.1
20260506044643 9 324 4.8 12.9 0.00 0.00 0.00 92 1007.2
20260506044508 8 13 4.8 12.9 0.00 0.00 0.00 92 1007.2
20260506044132 9 15 4.8 11.3 0.00 0.00 0.00 92 1007.2
20260506044008 8 16 3.2 9.7 0.00 0.00 0.00 92 1007.2
20260506043811 9 340 3.2 11.3 0.00 0.00 0.00 91 1007.1
20260506043650 9 350 3.2 9.7 0.00 0.00 0.00 92 1007.2
20260506043529 8 13 3.2 9.7 0.00 0.00 0.00 91 1007.3
20260506043008 8 15 3.2 11.3 0.00 0.00 0.00 91 1007.1
20260506042649 9 28 4.8 11.3 0.00 0.00 0.00 91 1007.1
20260506042507 8 23 4.8 11.3 0.00 0.00 0.00 91 1007.2
20260506042136 9 13 4.8 11.3 0.00 0.00 0.00 91 1007.1
20260506042009 8 15 4.8 11.3 0.00 0.00 0.00 91 1007.2
20260506041739 9 0 4.8 9.7 0.00 0.00 0.00 91 1007.1
20260506041647 9 19 4.8 9.7 0.00 0.00 0.00 91 1007.1
20260506041528 8 7 3.2 9.7 0.00 0.00 0.00 91 1007.1
20260506041009 8 12 3.2 8.0 0.00 0.00 0.00 91 1007.1
20260506040632 9 11 3.2 9.7 0.00 0.00 0.00 91 1007.1
20260506040507 8 11 3.2 9.7 0.00 0.00 0.00 91 1007.0
20260506040143 9 38 3.2 9.7 0.00 0.00 0.00 91 1007.1
20260506040008 9 9 3.2 9.7 0.00 0.00 0.00 91 1007.1
20260506035635 9 348 3.2 8.0 0.00 0.00 0.00 91 1007.1
20260506035507 9 10 3.2 8.0 0.00 0.00 0.00 91 1007.2
20260506035135 9 45 1.6 8.0 0.00 0.00 0.00 91 1007.2
20260506035007 9 11 1.6 8.0 0.00 0.00 0.00 91 1007.2
20260506034637 9 28 3.2 6.4 0.00 0.00 0.00 91 1007.3
20260506034508 9 13 3.2 8.0 0.00 0.00 0.00 90 1007.2
20260506034133 9 9 3.2 8.0 0.00 0.00 0.00 90 1007.2
20260506034008 9 9 3.2 8.0 0.00 0.00 0.00 90 1007.3
20260506033632 9 348 3.2 8.0 0.00 0.00 0.00 90 1007.3
20260506033507 9 13 3.2 6.4 0.00 0.00 0.00 90 1007.3
20260506033133 9 351 3.2 12.9 0.00 0.00 0.00 90 1007.4
20260506033008 9 18 4.8 12.9 0.00 0.00 0.00 90 1007.3
20260506032826 9 20 4.8 11.3 0.00 0.00 0.00 90 1007.3
20260506032704 9 13 4.8 12.9 0.00 0.00 0.00 90 1007.3
20260506032528 9 19 4.8 12.9 0.00 0.00 0.00 90 1007.3
20260506032008 9 20 4.8 11.3 0.00 0.00 0.00 90 1007.3
20260506031634 9 17 6.4 12.9 0.00 0.00 0.00 90 1007.3
20260506031508 9 17 6.4 12.9 0.00 0.00 0.00 90 1007.3
20260506031151 9 21 6.4 14.5 0.00 0.00 0.00 89 1007.2
20260506031129 9 27 6.4 14.5 0.00 0.00 0.00 89 1007.3
20260506031008 9 16 6.4 14.5 0.00 0.00 0.00 89 1007.4
20260506030508 9 16 6.4 14.5 0.00 0.00 0.00 89 1007.3
20260506030132 9 17 4.8 14.5 0.00 0.00 0.00 89 1007.3
20260506030009 9 16 4.8 8.0 0.00 0.00 0.00 89 1007.5
20260506025645 9 11 4.8 11.3 0.00 0.00 0.00 88 1007.5
20260506025627 9 28 4.8 11.3 0.00 0.00 0.00 89 1007.4
20260506025507 9 16 4.8 11.3 0.00 0.00 0.00 89 1007.5
20260506025007 9 17 4.8 11.3 0.00 0.00 0.00 88 1007.5
20260506024614 9 0 4.8 12.9 0.00 0.00 0.00 88 1007.5
20260506024507 9 17 4.8 16.1 0.00 0.00 0.00 88 1007.6
20260506024115 9 26 4.8 16.1 0.00 0.00 0.00 88 1007.5
20260506024008 9 16 4.8 16.1 0.00 0.00 0.00 88 1007.6
20260506023617 9 37 4.8 16.1 0.00 0.03 0.00 87 1007.5
20260506023528 10 19 4.8 16.1 0.00 0.03 0.00 87 1007.6
20260506023119 10 44 4.8 12.9 0.00 0.03 0.00 87 1007.5
20260506023008 10 17 4.8 12.9 0.00 0.03 0.00 87 1007.7
20260506022620 10 11 4.8 12.9 0.00 0.03 0.00 87 1007.6
20260506022509 10 19 4.8 11.3 0.00 0.03 0.00 86 1007.6
20260506022120 10 36 4.8 12.9 0.00 0.03 0.00 86 1007.7
20260506022029 10 22 4.8 16.1 0.00 0.03 0.00 86 1007.7
20260506021628 10 16 6.4 16.1 0.00 0.05 0.00 86 1007.6
20260506021508 10 20 6.4 16.1 0.00 0.05 0.00 85 1007.7
20260506021122 10 24 8.0 16.1 0.00 0.05 0.00 85 1007.5
20260506021008 10 18 6.4 14.5 0.00 0.08 0.00 85 1007.7
20260506020623 10 30 8.0 14.5 0.00 0.08 0.00 85 1007.6
20260506020509 10 18 8.0 14.5 0.00 0.08 0.00 84 1007.6
20260506020132 10 346 6.4 14.5 0.00 0.08 0.00 84 1007.5
20260506020008 10 21 6.4 14.5 0.00 0.08 0.00 84 1007.5
20260506015611 10 29 6.4 14.5 0.00 0.08 0.00 84 1007.6
20260506015529 10 27 6.4 14.5 0.00 0.08 0.00 84 1007.6
20260506015114 10 32 6.4 17.7 0.00 0.08 0.00 84 1007.5
20260506015007 10 29 6.4 17.7 0.00 0.08 0.00 84 1007.5
20260506014709 10 15 8.0 22.5 0.00 0.08 0.00 83 1007.4
20260506014623 10 17 6.4 17.7 0.00 0.08 0.00 83 1007.5
20260506014528 10 22 6.4 17.7 0.00 0.08 0.00 83 1007.6
20260506014029 10 12 8.0 22.5 0.00 0.08 0.00 83 1007.5
20260506013616 10 28 8.0 22.5 0.00 0.08 0.00 83 1007.6
20260506013507 10 12 8.0 22.5 0.00 0.08 0.00 83 1007.6
20260506013114 10 14 8.0 19.3 0.00 0.08 0.00 83 1007.5
20260506013009 10 15 8.0 19.3 0.00 0.08 0.00 83 1007.5
20260506012607 10 5 9.7 19.3 0.00 0.08 0.00 83 1007.5
20260506012507 10 18 9.7 20.9 0.00 0.08 0.00 83 1007.5
20260506012113 10 355 11.3 20.9 0.00 0.08 0.00 83 1007.4
20260506012007 10 20 11.3 20.9 0.00 0.08 0.00 83 1007.5
20260506011608 10 26 8.0 20.9 0.00 0.08 0.00 83 1007.6
20260506011509 10 21 8.0 19.3 0.00 0.08 0.00 83 1007.6
20260506011101 10 19 6.4 19.3 0.00 0.08 0.00 83 1007.6
20260506011010 10 17 4.8 17.7 0.00 0.08 0.00 83 1007.6
20260506010611 10 20 6.4 12.9 0.00 0.08 0.00 83 1007.6
20260506010507 10 13 6.4 12.9 0.00 0.08 0.00 83 1007.7
20260506010125 10 29 6.4 19.3 0.00 0.08 0.00 83 1007.7
20260506010008 10 14 8.0 19.3 0.00 0.08 0.00 83 1007.7
20260506005601 10 23 8.0 19.3 0.00 0.08 0.00 82 1007.7
20260506005507 10 17 8.0 19.3 0.00 0.08 0.00 82 1007.8
20260506005228 10 0 8.0 16.1 0.00 0.08 0.00 82 1007.7
20260506005121 10 18 8.0 19.3 0.00 0.08 0.00 82 1007.7
20260506005008 10 19 8.0 19.3 0.00 0.08 0.00 82 1007.8
20260506004507 10 19 8.0 16.1 0.00 0.08 0.00 82 1007.8
20260506004056 10 5 8.0 17.7 0.00 0.08 0.00 82 1007.8
20260506004008 10 19 8.0 17.7 0.00 0.08 0.00 82 1007.9
20260506003603 10 335 6.4 17.7 0.00 0.08 0.00 82 1007.8
20260506003508 10 16 8.0 17.7 0.00 0.08 0.00 82 1007.9
20260506003052 10 5 8.0 17.7 0.00 0.08 0.00 81 1008.0
20260506003009 10 19 8.0 17.7 0.00 0.08 0.00 81 1008.1
20260506002554 10 46 8.0 17.7 0.00 0.08 0.00 81 1007.9
20260506002507 10 22 8.0 17.7 0.00 0.08 0.00 81 1008.1
20260506002058 10 27 8.0 17.7 0.00 0.08 0.00 81 1008.0
20260506002008 10 21 8.0 17.7 0.00 0.08 0.00 81 1008.1
20260506001553 10 30 8.0 16.1 0.00 0.08 0.00 81 1008.1
20260506001507 10 19 6.4 16.1 0.00 0.08 0.00 81 1008.1
20260506001059 10 27 8.0 16.1 0.00 0.08 0.00 81 1008.1
20260506001030 10 18 8.0 16.1 0.00 0.08 0.00 81 1008.1
20260506000555 10 19 8.0 19.3 0.00 0.08 0.00 81 1008.1
20260506000507 10 19 8.0 19.3 0.00 0.08 0.00 81 1008.1
20260506000056 10 22 6.4 19.3 0.00 0.08 0.00 80 1008.2
20260506000009 10 21 6.4 19.3 0.00 0.08 0.00 80 1008.1
20260505235723 10 33 6.4 17.7 0.00 0.08 0.00 80 1008.2
20260505235632 10 28 6.4 17.7 0.00 0.08 0.00 80 1008.2
20260505235507 10 19 6.4 17.7 0.00 0.08 0.00 80 1008.2
20260505235007 10 17 6.4 17.7 0.00 0.08 0.00 80 1008.2
20260505234550 10 5 8.0 16.1 0.00 0.08 0.00 80 1008.2
20260505234507 10 19 8.0 16.1 0.00 0.08 0.00 80 1008.3
20260505234050 10 52 8.0 17.7 0.00 0.08 0.00 80 1008.3
20260505234007 10 16 8.0 17.7 0.00 0.08 0.00 80 1008.3
20260505233628 10 23 6.4 16.1 0.00 0.08 0.00 79 1008.3
20260505233601 10 5 6.4 17.7 0.00 0.08 0.00 79 1008.4
20260505233507 10 15 6.4 17.7 0.00 0.08 0.00 79 1008.3
20260505233007 10 17 6.4 16.1 0.00 0.08 0.00 79 1008.4
20260505232606 10 348 8.0 22.5 0.00 0.08 0.00 79 1008.4
20260505232508 10 19 8.0 22.5 0.00 0.08 0.00 79 1008.4
20260505232052 10 26 8.0 22.5 0.00 0.08 0.00 79 1008.3
20260505232008 10 19 8.0 22.5 0.00 0.08 0.00 79 1008.3
20260505231542 10 5 6.4 16.1 0.00 0.08 0.00 79 1008.4
20260505231507 10 18 6.4 16.1 0.00 0.08 0.00 79 1008.4
20260505231050 10 19 6.4 16.1 0.00 0.08 0.00 79 1008.4
20260505231029 10 18 6.4 16.1 0.00 0.08 0.00 79 1008.5
20260505230549 10 57 6.4 16.1 0.00 0.08 0.00 79 1008.3
20260505230507 10 20 6.4 16.1 0.00 0.08 0.00 79 1008.3
20260505230115 10 9 6.4 14.5 0.00 0.08 0.00 79 1008.4
20260505230008 11 20 4.8 14.5 0.00 0.08 0.00 79 1008.4
20260505225542 10 25 6.4 14.5 0.00 0.08 0.00 78 1008.4
20260505225528 11 16 6.4 14.5 0.00 0.08 0.00 78 1008.4
20260505225043 10 11 6.4 14.5 0.00 0.08 0.00 78 1008.4
20260505225008 11 15 6.4 14.5 0.00 0.08 0.00 78 1008.4
20260505224541 11 9 6.4 12.9 0.00 0.08 0.00 78 1008.5
20260505224507 11 16 6.4 12.9 0.00 0.08 0.00 78 1008.5
20260505224049 11 355 8.0 19.3 0.00 0.08 0.00 78 1008.6
20260505224007 11 17 8.0 19.3 0.00 0.08 0.00 78 1008.6
20260505223540 11 13 9.7 19.3 0.00 0.08 0.00 78 1008.6
20260505223507 11 16 9.7 19.3 0.00 0.08 0.00 78 1008.7
20260505223046 11 22 8.0 19.3 0.00 0.08 0.00 77 1008.6
20260505223029 11 18 8.0 19.3 0.00 0.08 0.00 77 1008.6
20260505222544 11 15 8.0 19.3 0.00 0.08 0.00 77 1008.7
20260505222528 11 19 8.0 19.3 0.00 0.08 0.00 77 1008.7
20260505222257 11 0 6.4 16.1 0.00 0.08 0.00 77 1008.7
20260505222131 11 25 6.4 14.5 0.00 0.08 0.00 77 1008.6
20260505222029 11 17 6.4 14.5 0.00 0.08 0.00 77 1008.7
20260505221507 11 16 8.0 16.1 0.00 0.08 0.00 77 1008.7
20260505221036 11 25 8.0 16.1 0.00 0.10 0.00 77 1008.6
20260505221008 11 14 8.0 16.1 0.00 0.10 0.00 77 1008.7
20260505220545 11 329 6.4 16.1 0.00 0.10 0.00 77 1008.7
20260505220530 11 15 6.4 16.1 0.00 0.10 0.00 77 1008.7
20260505220107 11 21 6.4 16.1 0.00 0.10 0.00 77 1008.7
20260505220033 11 16 4.8 16.1 0.00 0.10 0.00 77 1008.8
20260505215758 11 17 6.4 14.5 0.00 0.10 0.00 77 1008.7
20260505215750 11 0 6.4 17.7 0.00 0.10 0.00 77 1008.8
20260505215621 11 48 4.8 12.9 0.00 0.10 0.00 77 1008.8
20260505215507 11 16 4.8 12.9 0.00 0.10 0.10 77 1008.8
20260505215007 11 17 6.4 14.5 0.00 0.10 0.10 77 1008.8
20260505214508 11 17 6.4 17.7 0.00 0.10 0.10 77 1008.8
20260505214035 11 21 6.4 17.7 0.00 0.10 0.00 77 1008.9
20260505214008 11 19 6.4 17.7 0.00 0.10 0.10 77 1008.9
20260505213532 11 338 6.4 14.5 0.00 0.10 0.00 77 1008.8
20260505213529 11 16 6.4 14.5 0.00 0.10 0.10 77 1008.8
20260505213033 11 30 6.4 14.5 0.00 0.10 0.00 77 1008.9
20260505213008 11 15 6.4 14.5 0.00 0.10 0.10 77 1008.9
20260505212812 11 17 4.8 9.7 0.00 0.10 0.00 78 1008.8
20260505212638 11 346 4.8 14.5 0.00 0.10 0.00 77 1008.8
20260505212507 11 18 4.8 14.5 0.00 0.10 0.10 77 1008.8
20260505212008 11 20 4.8 11.3 0.00 0.10 0.10 78 1008.9
20260505211536 11 28 4.8 11.3 0.00 0.10 0.00 78 1008.9
20260505211507 11 19 4.8 11.3 0.00 0.10 0.10 78 1008.9
20260505211044 11 63 6.4 14.5 0.00 0.10 0.00 78 1008.9
20260505211008 11 15 6.4 14.5 0.00 0.10 0.10 78 1008.9
20260505210741 11 18 4.8 11.3 0.00 0.10 0.00 78 1008.9
20260505210612 11 16 6.4 14.5 0.00 0.10 0.00 78 1008.8
20260505210507 11 16 4.8 14.5 0.00 0.10 0.10 78 1008.9
20260505210009 11 19 4.8 9.7 0.00 0.10 0.10 77 1008.9
20260505205818 11 22 6.4 14.5 0.00 0.10 0.00 77 1008.9
20260505205617 11 0 4.8 12.9 0.00 0.10 0.00 77 1008.9
20260505205528 11 21 4.8 12.9 0.00 0.10 0.10 77 1008.9
20260505205009 11 21 6.4 14.5 0.00 0.10 0.10 77 1009.0
20260505204538 11 27 6.4 14.5 0.00 0.10 0.00 77 1008.9
20260505204507 11 20 6.4 14.5 0.00 0.10 0.10 77 1008.9
20260505204312 11 27 8.0 14.5 0.00 0.13 0.00 76 1009.0
20260505204113 11 22 4.8 14.5 0.00 0.10 0.00 77 1008.9
20260505204008 11 20 4.8 14.5 0.00 0.10 0.10 77 1009.0